EW9936 Weather Reports


Display with metric or nautical units.
time (UTC)temp
F
wind
direction
speed
MPH
gust
MPH
rain 1hr
in
rain 24hr
in
rain mn
in
humidity
%
barometer
mb
20260506181520 60 221 5.0 0.0 0.00 0.00 0.19 100 971.4
20260506180019 60 220 6.0 0.0 0.00 0.00 0.19 100 971.4
20260506174517 60 227 9.0 0.0 0.00 0.00 0.19 100 971.3
20260506173022 60 239 10.0 0.0 0.00 0.00 0.19 100 971.3
20260506171516 59 186 7.0 0.0 0.00 0.00 0.19 100 971.3
20260506170014 59 226 8.0 0.0 0.00 0.00 0.19 100 971.4
20260506164514 59 218 12.0 0.0 0.00 0.00 0.19 100 971.5
20260506163011 59 180 10.0 0.0 0.00 0.00 0.19 100 971.4
20260506161611 59 176 9.0 0.0 0.00 0.00 0.18 100 971.4
20260506160014 59 188 7.0 0.0 0.00 0.00 0.17 100 971.6
20260506154506 59 206 6.0 0.0 0.00 0.00 0.15 100 972.4
20260506153004 59 210 5.0 0.0 0.00 0.00 0.13 100 972.6
20260506151504 59 221 7.0 0.0 0.00 0.00 0.10 100 972.8
20260506150002 59 205 7.0 0.0 0.00 0.00 0.08 100 972.5
20260506144559 60 196 7.0 0.0 0.00 0.00 0.06 100 972.3
20260506143057 60 182 6.0 0.0 0.00 0.00 0.05 99 972.6
20260506141610 60 211 7.0 0.0 0.00 0.00 0.04 98 972.5
20260506140053 61 175 6.0 0.0 0.00 0.00 0.02 95 972.4
20260506134550 62 180 5.0 0.0 0.00 0.00 0.00 94 972.4
20260506133048 62 230 5.0 0.0 0.00 0.00 0.00 94 972.2
20260506131547 62 202 4.0 0.0 0.00 0.00 0.00 94 972.5
20260506130045 62 196 6.0 0.0 0.00 0.00 0.00 92 972.5
20260506124543 63 244 6.0 0.0 0.00 0.00 0.00 90 972.6
20260506123045 63 227 5.0 0.0 0.00 0.00 0.00 90 972.7
20260506121551 63 214 5.0 0.0 0.00 0.00 0.00 90 972.6
20260506120107 63 227 6.0 0.0 0.00 0.00 0.00 90 972.4
20260506114545 63 221 4.0 0.0 0.00 0.00 0.00 90 972.2
20260506113040 63 156 9.0 0.0 0.00 0.00 0.00 90 972.0
20260506111540 63 176 8.0 0.0 0.00 0.00 0.00 90 972.1
20260506110036 62 185 9.0 0.0 0.00 0.00 0.00 90 972.0
20260506104534 62 179 9.0 0.0 0.00 0.00 0.00 90 971.9
20260506103035 63 205 9.0 0.0 0.00 0.00 0.00 89 971.8
20260506101532 63 227 8.0 0.0 0.00 0.00 0.00 89 971.9
20260506100032 63 215 8.0 0.0 0.00 0.00 0.00 88 971.8
20260506094533 63 214 9.0 0.0 0.00 0.00 0.00 88 971.6
20260506093040 64 220 8.0 0.0 0.00 0.00 0.00 87 971.7
20260506091523 64 229 8.0 0.0 0.00 0.00 0.00 87 971.7
20260506090019 64 155 10.0 0.0 0.00 0.00 0.00 87 971.7
20260506084517 64 192 10.0 0.0 0.00 0.00 0.00 86 971.8
20260506083015 65 198 9.0 0.0 0.00 0.00 0.00 85 971.7
20260506081513 65 223 8.0 0.0 0.00 0.00 0.00 85 971.8
20260506073006 65 192 9.0 0.0 0.00 0.00 0.00 82 972.0
20260506071507 65 200 8.0 0.0 0.00 0.00 0.00 82 972.1
20260506070118 65 170 7.0 0.0 0.00 0.00 0.00 81 972.2
20260506061553 66 192 6.0 0.0 0.00 0.00 0.00 78 972.7
20260506044552 67 229 7.0 0.0 0.00 0.00 0.00 73 973.0
20260506043040 67 197 8.0 0.0 0.00 0.00 0.00 73 973.0
20260506041548 67 201 8.0 0.0 0.00 0.00 0.00 73 973.0
20260506040041 67 196 9.0 0.0 0.00 0.00 0.00 72 972.9
20260506034536 67 225 7.0 0.0 0.00 0.00 0.00 72 972.9
20260506033034 67 167 7.0 0.0 0.00 0.00 0.00 72 972.9
20260506031546 67 163 6.0 0.0 0.00 0.00 0.00 72 972.9
20260506030038 67 189 6.0 0.0 0.00 0.00 0.00 71 972.9
20260506024536 67 175 4.0 0.0 0.00 0.00 0.00 71 972.9
20260506023036 67 215 4.0 0.0 0.00 0.00 0.00 70 973.0
20260506021533 68 196 4.0 0.0 0.00 0.00 0.00 69 973.0
20260506020032 68 190 3.0 0.0 0.00 0.00 0.00 68 972.9
20260506014532 69 182 4.0 0.0 0.00 0.00 0.00 67 972.8
20260506013031 69 211 5.0 0.0 0.00 0.00 0.00 66 972.8
20260506011531 70 194 4.0 0.0 0.00 0.00 0.00 66 972.6
20260506010033 70 202 2.0 0.0 0.00 0.00 0.00 64 972.4
20260506004548 71 184 1.0 0.0 0.00 0.00 0.00 62 972.4
20260506003030 72 195 3.0 0.0 0.00 0.00 0.00 60 972.3
20260506001529 73 221 5.0 0.0 0.00 0.00 0.00 59 972.1
20260506000028 73 206 6.0 0.0 0.00 0.00 0.00 59 972.0
20260505234601 74 215 6.0 0.0 0.00 0.00 0.00 58 972.0
20260505233028 74 186 7.0 0.0 0.00 0.00 0.00 57 971.7
20260505231529 75 205 9.0 0.0 0.00 0.00 0.00 57 971.9
20260505230027 75 194 9.0 0.0 0.00 0.00 0.00 56 971.8
20260505224530 76 203 10.0 0.0 0.00 0.00 0.00 55 971.8
20260505223025 76 198 12.0 0.0 0.00 0.00 0.00 55 971.7
20260505221525 77 187 10.0 0.0 0.00 0.00 0.00 56 971.8
20260505220026 77 202 11.0 0.0 0.00 0.00 0.00 55 971.7
20260505214525 77 202 12.0 0.0 0.00 0.00 0.00 57 971.6
20260505213023 77 205 15.0 0.0 0.00 0.00 0.00 57 971.6
20260505211523 77 226 14.0 0.0 0.00 0.00 0.00 58 971.7
20260505210025 77 194 13.0 0.0 0.00 0.00 0.00 58 971.6
20260505204526 77 211 13.0 0.0 0.00 0.00 0.00 56 971.5
20260505203024 77 215 12.0 0.0 0.00 0.00 0.00 54 971.6
20260505201526 77 196 12.0 0.0 0.00 0.00 0.00 58 971.7
20260505200024 77 228 14.0 0.0 0.00 0.00 0.00 57 971.8
20260505194520 78 215 11.0 0.0 0.00 0.00 0.00 56 971.7
20260505193018 78 207 10.0 0.0 0.00 0.00 0.00 56 971.9
20260505191520 78 182 12.0 0.0 0.00 0.00 0.00 55 972.0
20260505190020 77 208 13.0 0.0 0.00 0.00 0.00 56 972.2
20260505184523 78 215 9.0 0.0 0.00 0.00 0.00 54 972.3
20260505183034 78 220 12.0 0.0 0.00 0.00 0.00 55 972.4